Temperature
14 14 14 14 14 13 13 13 13 13 13 13 13 12 12 12 12 12 12 11 11 11 11 11 11 10 10 10 10 10 10 10 10 10 9 9 9 9 10 10 10 10 10
14 14 14 14 14 13 13 13 13 13 13 12 12 12 12 12 12 12 12 11 11 11 11 11 10 10 10 10 10 10 10 9 9 9 9 9 9 9 9 9 9 9 9
14 14 14 13 13 13 13 13 13 12 12 12 12 12 12 12 11 11 11 11 11 11 11 10 10 10 10 10 10 9 9 9 9 9 9 9 9 9 9 9 9 9 9
13 13 13 13 13 13 12 12 12 12 12 12 12 11 11 11 11 11 11 11 10 10 10 10 10 10 10 9 9 9 9 9 9 9 9 8 8 9 9 8 8 9 9
12 13 13 12 12 12 12 12 12 12 12 11 11 11 11 11 11 11 10 10 10 10 10 10 10 10 10 9 9 9 9 9 8 8 8 8 8 8 8 8 8 8 8
12 12 12 12 12 12 12 12 11 11 11 11 11 11 11 11 11 11 10 10 10 10 10 10 10 10 9 9 9 9 9 9 8 8 8 8 8 8 8 8 8 8 8
11 11 12 11 11 11 11 11 11 11 11 11 11 11 10 10 10 10 10 10 10 10 10 9 9 9 9 9 9 9 9 9 9 8 8 8 8 8 8 8 8 8 8
11 11 11 11 11 11 11 11 11 10 10 10 10 10 10 10 10 10 10 9 9 9 9 9 9 9 9 9 8 8 9 9 8 8 8 8 8 8 8 8 8 7 7
10 10 10 11 10 10 10 10 10 10 10 10 10 10 9 9 9 9 9 9 9 9 9 9 9 8 9 9 8 8 8 8 8 8 8 8 8 8 8 7 7 7 7
10 10 10 10 10 10 10 10 10 10 9 9 9 9 9 9 9 9 9 8 8 8 8 9 9 8 8 8 8 8 8 8 8 8 8 8 7 7 7 7 7 7 7
9 9 9 9 9 9 9 9 9 9 9 8 8 8 8 8 8 8 8 8 8 8 8 8 8 8 8 8 8 8 8 8 7 7 7 7 7 7 7 7 7 6 6
9 9 9 9 9 8 8 8 8 8 8 8 8 8 8 8 8 8 8 8 8 8 8 8 8 8 8 8 8 8 8 7 7 7 7 7 6 6 6 6 6 6 6
8 8 8 8 8 8 8 8 8 8 7 7 7 7 7 7 7 7 7 7 7 7 7 7 8 8 8 7 7 7 7 7 6 6 6 6 6 6 6 6 6 6 6
7 7 7 7 7 7 7 7 7 7 7 6 6 6 6 6 6 6 7 7 7 7 7 7 7 7 7 7 7 7 6 6 6 6 6 6 6 6 6 6 5 5 5
7 7 7 7 6 6 6 6 6 6 6 6 6 6 6 6 6 6 6 6 6 6 6 6 6 6 6 6 6 6 6 6 6 5 5 5 5 5 5 5 5 5 5
6 6 6 6 6 6 6 6 6 6 6 6 6 6 5 5 6 6 6 6 6 6 6 5 5 5 5 5 5 5 5 5 5 5 5 5 5 5 4 4 4 4 4
6 6 6 6 5 5 5 5 5 5 5 5 5 5 5 5 5 5 5 5 5 5 5 5 5 5 5 5 5 5 5 5 5 4 4 4 4 4 4 4 4 4 4
5 5 5 5 5 5 5 5 5 5 5 5 5 5 5 5 5 5 5 5 5 5 4 4 4 4 4 4 4 4 4 4 4 4 4 3 4 4 3 3 3 3 3
5 5 5 5 4 4 4 4 4 4 4 4 4 4 4 4 4 4 4 4 4 4 4 4 4 4 4 4 4 4 4 3 3 3 3 3 3 3 3 3 3 3 3
4 4 4 4 4 4 4 4 4 4 4 4 4 4 4 4 4 3 3 3 3 3 4 4 4 4 4 3 3 3 3 3 3 3 3 3 3 3 2 2 2 2 2
4 4 4 3 3 3 3 3 3 3 3 3 3 3 3 3 3 3 3 3 3 3 3 3 3 3 3 3 3 3 3 3 3 3 2 2 2 2 2 2 2 2 2
3 3 3 3 3 3 3 3 3 3 3 3 3 3 3 3 3 3 3 3 3 3 3 3 3 3 3 3 3 3 2 2 2 2 2 2 2 2 2 2 2 2 1
3 3 3 3 3 3 3 3 2 2 2 2 2 2 2 2 2 2 2 2 2 2 2 2 2 2 2 2 2 2 2 2 2 2 2 2 2 2 1 2 2 1 1
2 2 2 2 2 2 2 2 2 2 2 2 2 2 2 2 2 2 2 2 2 2 2 2 2 2 2 2 2 2 2 2 2 2 2 2 1 1 1 1 1 1 1
2 2 2 2 2 2 2 2 2 2 2 2 2 2 2 2 2 2 2 2 2 2 2 2 2 2 2 2 2 2 2 2 2 2 1 1 1 1 1 1 1 1 1
1 1 1 1 1 1 1 1 1 1 1 1 1 1 1 1 1 1 1 1 2 2 1 1 1 1 1 1 1 1 1 1 1 1 1 1 1 1 1 1 1 1 0
Wind_Speed
4 4 4 4 4 5 5 5 5 5 4 5 5 5 5 5 6 5 6 5 5 5 5 5 5 4 3 3 3 3 3 4 4 3 2 1 2 2 1 2 1 2 2
3 3 4 4 4 4 4 4 5 5 5 5 5 5 5 6 6 6 6 6 6 6 6 5 5 4 5 4 3 4 4 4 4 3 2 2 2 2 1 1 1 1 1
2 2 3 3 4 4 4 4 4 5 6 6 6 6 6 6 6 6 6 6 7 7 6 6 6 5 5 4 4 4 4 4 4 4 3 1 2 2 2 2 1 1 1
0 1 2 2 3 4 4 3 4 4 5 5 6 6 7 7 7 7 7 7 7 7 6 6 6 6 6 6 5 5 5 5 4 4 3 3 2 2 2 2 2 2 2
0 1 2 2 3 3 3 3 3 4 4 4 5 6 7 6 6 7 7 7 7 7 7 7 7 6 5 5 5 5 5 5 5 5 4 3 3 3 3 3 3 2 2
0 1 1 2 2 3 3 3 3 4 4 4 5 6 6 6 5 6 7 8 8 8 7 7 7 7 7 7 6 5 6 6 6 6 5 5 5 4 3 3 3 3 2
1 1 1 2 2 3 3 3 4 4 4 5 5 5 6 6 5 7 9 8 7 7 8 7 6 6 8 7 7 8 8 7 7 7 6 6 5 5 5 5 4 4 4
2 2 2 2 3 3 3 3 4 4 5 5 5 5 6 6 6 7 7 8 8 8 8 8 7 8 7 8 8 8 8 7 8 8 7 6 5 5 5 5 5 4 4
2 3 3 3 3 4 4 4 4 4 5 5 5 6 6 6 6 6 7 6 7 9 8 8 8 8 7 8 8 8 8 6 5 6 5 4 2 3 4 3 4 5 4
4 4 4 4 4 4 5 5 5 5 5 5 6 6 7 7 5 6 7 6 7 7 6 6 7 7 7 8 9 8 8 7 6 6 6 5 5 5 7 6 5 5 5
5 5 4 4 4 4 5 4 5 5 5 5 6 6 6 6 5 5 6 6 6 6 5 5 4 6 7 8 8 8 7 6 6 6 5 5 4 4 5 5 5 5 5
5 4 4 5 4 4 4 4 4 4 5 5 5 5 5 5 4 4 6 7 6 6 5 4 3 5 6 7 7 6 5 6 5 5 5 5 5 4 4 5 5 6 5
5 5 5 5 4 4 4 4 4 4 4 4 4 5 4 4 3 4 5 6 6 5 4 2 2 4 5 5 6 6 6 6 6 6 6 5 5 5 4 4 4 4 4
5 5 4 4 4 4 3 3 4 4 4 4 5 5 4 4 3 3 3 3 4 5 4 3 4 4 5 4 5 5 5 5 5 6 5 4 3 3 4 4 4 4 4
5 5 4 4 4 4 4 4 5 4 4 5 5 5 5 5 4 4 4 3 3 3 3 2 3 3 4 4 4 4 4 5 5 5 4 4 3 4 3 3 4 4 4
4 4 4 4 4 4 4 4 3 4 4 5 6 6 5 4 4 4 4 3 3 3 3 4 4 4 4 4 4 4 4 4 4 4 4 4 4 4 4 4 4 4 4
5 5 4 4 4 4 4 4 4 4 3 4 5 5 5 4 4 4 4 4 4 5 4 5 5 5 5 5 4 4 4 4 4 4 4 4 4 4 4 4 4 4 4
5 4 4 4 4 4 4 4 4 4 5 5 4 4 4 4 4 3 3 3 3 4 5 5 5 5 5 5 4 4 4 4 4 4 4 4 4 4 4 5 5 5 5
4 4 4 4 4 4 4 4 4 5 5 5 5 4 3 3 3 3 3 3 4 4 5 5 4 5 5 5 4 4 4 4 4 4 4 4 4 4 5 5 4 5 5
4 4 4 4 4 4 4 4 4 5 5 4 4 4 3 3 3 3 4 4 4 4 4 4 4 4 4 4 4 4 4 4 4 4 4 4 4 4 5 5 5 5 5
4 4 4 4 4 4 4 4 5 5 5 5 5 4 4 4 4 4 4 4 4 4 4 4 4 4 4 4 4 5 5 4 4 4 4 4 4 4 4 4 4 4 4
3 3 4 4 4 4 4 4 4 5 5 6 5 4 4 4 4 4 4 4 4 4 4 4 4 3 4 4 4 4 5 5 5 5 5 4 4 4 4 4 4 4 4
3 4 4 4 4 4 4 4 4 5 5 5 5 4 4 4 4 4 4 4 4 4 3 3 3 3 3 4 4 4 5 5 5 5 5 5 5 5 5 5 5 5 5
4 4 4 4 3 4 4 4 4 5 5 5 5 5 4 4 5 5 4 4 4 4 3 3 4 4 5 4 4 4 4 4 5 5 6 5 5 5 5 5 5 5 5
4 4 4 4 4 4 4 4 4 5 5 5 5 5 5 5 4 4 4 3 4 3 4 4 4 4 5 6 5 4 4 4 5 5 5 5 6 6 5 5 5 5 5
4 4 4 4 4 4 4 4 5 5 5 5 5 5 5 5 5 4 4 3 3 3 4 4 4 4 5 5 5 4 4 5 6 6 6 5 5 5 5 5 6 6 6
Wind_Direction
227 223 218 222 234 242 246 245 246 248 246 245 243 242 237 231 224 218 225 229 232 231 226 230 233 239 232 227 230 234 237 242 246 258 274 262 261 265 243 260 249 221 159
231 227 226 222 224 233 241 246 249 249 245 245 249 249 246 238 233 226 224 229 232 233 230 227 227 220 229 229 224 226 225 229 235 241 249 249 261 263 255 255 243 234 216
229 229 234 238 237 239 240 244 248 250 250 245 244 247 250 243 233 227 227 231 233 234 231 228 228 221 221 222 224 227 226 222 226 232 245 250 259 241 231 244 239 240 238
244 239 254 257 256 254 249 246 247 253 255 252 248 247 249 247 238 230 229 234 235 235 234 232 232 227 226 226 223 226 224 220 217 224 231 232 239 234 225 227 230 220 230
261 287 277 274 270 265 258 257 256 255 259 262 257 252 250 245 239 236 233 235 234 235 236 234 231 230 240 239 234 228 221 220 218 220 227 231 230 218 225 226 232 233 232
325 315 311 303 290 278 272 268 265 264 263 260 260 257 254 248 239 240 242 237 237 236 238 238 231 223 221 224 230 236 233 229 225 219 224 228 236 232 227 221 224 228 236
308 315 315 299 296 291 282 276 273 268 267 263 266 264 258 255 241 239 239 241 240 240 238 238 235 229 219 223 219 219 225 235 243 239 235 237 239 230 221 221 222 232 244
310 319 318 307 300 297 288 280 276 271 267 264 264 265 261 256 245 245 244 241 241 238 236 236 235 230 221 222 223 222 225 226 230 235 241 244 245 239 228 233 236 240 246
308 311 310 303 297 293 288 285 282 279 274 270 264 260 260 259 246 245 249 248 245 243 239 234 232 232 217 218 223 224 226 223 214 228 251 266 266 231 221 223 222 220 232
299 299 300 297 293 291 292 292 290 280 273 273 269 265 264 265 254 247 250 248 247 245 240 234 224 231 219 211 221 224 227 226 217 215 219 221 226 212 205 213 219 223 231
305 300 297 293 292 290 292 293 291 286 282 276 274 274 271 272 264 251 250 251 250 245 239 235 225 212 216 212 228 231 234 233 222 224 224 217 215 214 213 218 222 227 230
303 300 299 296 295 291 289 289 288 286 280 279 280 280 276 274 273 255 245 253 260 243 240 239 229 205 216 218 223 230 231 230 225 220 220 218 215 215 219 223 227 227 236
304 297 294 294 294 288 286 286 287 288 287 287 286 285 285 285 280 262 246 244 251 247 243 225 213 206 217 221 218 223 222 225 223 221 221 222 222 219 215 218 225 226 233
296 294 291 289 292 292 289 284 284 287 288 290 287 286 287 289 289 283 266 256 239 238 234 201 192 204 217 223 217 218 223 225 226 226 224 226 224 216 211 213 216 214 221
294 296 295 292 288 286 286 287 282 283 292 290 286 286 284 283 289 300 281 264 257 250 247 235 224 215 216 214 214 216 216 216 223 228 226 219 219 220 218 211 215 216 224
290 293 298 296 290 286 284 291 309 285 301 301 297 291 291 300 296 282 275 267 251 222 228 230 229 228 230 228 223 220 218 219 225 226 224 219 220 222 222 218 213 212 219
285 287 290 291 288 284 283 283 293 305 292 282 282 290 293 298 286 276 261 242 230 214 229 233 233 231 233 233 233 231 228 224 223 224 224 221 219 220 223 221 219 217 222
287 287 286 283 285 282 282 287 287 289 299 304 290 283 283 276 269 258 244 232 239 228 238 239 241 240 238 237 237 239 238 230 226 226 226 226 223 219 221 221 220 217 218
289 286 285 287 286 286 284 285 287 286 287 294 300 295 278 268 256 248 229 247 251 246 245 244 245 245 242 238 236 235 235 236 232 226 223 222 224 222 221 220 221 217 222
290 299 296 290 288 288 287 287 287 289 287 285 288 292 291 281 275 265 254 257 256 257 254 251 246 246 245 239 236 232 232 232 227 224 223 220 218 222 222 220 220 222 225
293 292 290 286 282 284 286 289 289 287 287 285 285 295 302 280 272 264 259 258 258 261 259 254 252 248 245 242 237 230 229 227 223 222 220 222 218 216 216 216 218 221 221
287 285 284 285 286 286 290 292 292 291 290 289 290 289 285 281 276 269 266 263 262 262 262 257 251 245 241 241 236 232 231 228 224 223 222 219 218 218 216 214 213 215 215
290 286 286 288 289 293 290 291 292 292 291 291 291 291 284 284 284 276 270 268 267 264 256 249 250 247 242 238 235 234 237 237 231 224 219 217 218 218 216 215 210 209 213
292 286 286 291 292 289 293 297 296 294 293 294 294 292 289 287 288 282 273 268 263 259 253 249 248 248 244 240 235 234 242 240 233 228 223 221 220 218 214 215 214 211 213
289 290 291 291 291 291 294 296 295 295 295 295 295 294 295 293 294 294 286 275 270 265 260 255 253 251 245 241 237 237 233 224 229 229 222 221 223 218 214 215 213 211 213
296 295 295 294 291 291 293 294 295 295 294 294 292 291 292 293 295 296 292 284 275 268 260 255 256 254 252 246 247 242 220 213 216 220 220 219 218 218 211 210 210 210 211
Height
1519 1520 1521 1521 1522 1523 1523 1523 1523 1523 1523 1523 1523 1522 1522 1522 1522 1521 1521 1522 1522 1521 1521 1521 1521 1520 1521 1521 1520 1521 1521 1522 1521 1521 1521 1520 1519 1519 1519 1518 1518 1518 1518
1517 1517 1518 1519 1519 1519 1520 1520 1520 1520 1520 1519 1519 1519 1518 1518 1518 1518 1517 1518 1518 1518 1518 1518 1517 1517 1518 1518 1518 1518 1518 1519 1519 1519 1519 1518 1518 1518 1517 1517 1517 1516 1517
1515 1515 1516 1516 1516 1516 1516 1516 1516 1516 1516 1516 1515 1515 1515 1514 1514 1514 1514 1514 1514 1515 1515 1514 1514 1515 1515 1515 1515 1515 1516 1516 1516 1516 1516 1516 1516 1516 1515 1515 1515 1515 1515
1512 1513 1513 1513 1513 1513 1513 1513 1513 1513 1512 1512 1511 1511 1511 1510 1510 1510 1510 1510 1511 1511 1511 1511 1511 1511 1511 1512 1512 1512 1513 1513 1513 1514 1514 1513 1513 1513 1513 1513 1513 1514 1514
1510 1511 1511 1511 1511 1510 1510 1509 1509 1509 1508 1508 1508 1507 1506 1506 1506 1506 1506 1506 1507 1507 1507 1507 1507 1507 1507 1508 1508 1509 1510 1510 1510 1510 1511 1511 1511 1510 1510 1511 1511 1512 1512
1508 1508 1508 1508 1508 1507 1507 1506 1506 1505 1505 1504 1504 1503 1502 1502 1501 1501 1502 1502 1502 1503 1503 1503 1503 1503 1503 1504 1504 1505 1505 1506 1507 1507 1507 1507 1508 1508 1508 1508 1509 1509 1510
1506 1506 1506 1505 1505 1505 1504 1503 1502 1502 1501 1501 1500 1499 1498 1497 1497 1497 1497 1497 1497 1498 1498 1499 1499 1499 1499 1500 1500 1501 1501 1502 1503 1503 1504 1504 1504 1505 1505 1505 1506 1506 1507
1504 1503 1503 1502 1502 1501 1501 1500 1499 1498 1497 1496 1495 1495 1494 1493 1492 1492 1492 1493 1493 1493 1493 1494 1494 1494 1495 1495 1496 1497 1497 1497 1498 1499 1499 1500 1501 1501 1502 1503 1503 1503 1504
1501 1500 1500 1500 1499 1498 1497 1496 1496 1494 1493 1492 1491 1490 1489 1489 1488 1488 1488 1488 1488 1488 1488 1489 1489 1490 1490 1491 1492 1493 1493 1493 1494 1494 1495 1496 1496 1497 1498 1498 1499 1500 1500
1498 1497 1497 1497 1496 1495 1494 1493 1492 1490 1489 1488 1487 1486 1485 1484 1484 1483 1483 1483 1483 1483 1484 1484 1484 1485 1486 1486 1488 1488 1488 1489 1490 1490 1491 1492 1492 1493 1494 1494 1495 1496 1497
1495 1494 1494 1493 1492 1491 1490 1489 1487 1486 1485 1484 1483 1482 1481 1480 1479 1478 1478 1479 1479 1479 1479 1479 1479 1480 1481 1482 1483 1484 1484 1485 1486 1486 1487 1487 1488 1489 1489 1490 1491 1492 1493
1491 1491 1490 1489 1488 1487 1486 1484 1483 1482 1481 1480 1478 1477 1476 1475 1475 1474 1474 1474 1474 1474 1474 1475 1475 1476 1477 1477 1478 1479 1480 1481 1481 1482 1482 1482 1483 1484 1485 1486 1487 1487 1488
1488 1487 1486 1485 1484 1483 1482 1481 1479 1478 1477 1476 1475 1473 1472 1471 1470 1469 1469 1469 1469 1469 1470 1470 1470 1471 1472 1473 1473 1474 1475 1476 1476 1476 1477 1478 1478 1479 1480 1481 1482 1483 1484
1485 1484 1483 1482 1481 1480 1478 1477 1476 1475 1473 1472 1471 1470 1468 1467 1466 1465 1465 1464 1464 1465 1465 1465 1466 1467 1467 1468 1469 1469 1470 1471 1472 1472 1472 1473 1474 1474 1475 1476 1477 1478 1479
1481 1480 1479 1478 1477 1476 1475 1474 1473 1471 1471 1469 1468 1466 1465 1463 1462 1462 1461 1460 1460 1460 1461 1461 1462 1462 1463 1463 1464 1464 1465 1466 1467 1468 1468 1469 1469 1470 1470 1471 1472 1473 1474
1478 1476 1475 1474 1473 1472 1471 1470 1468 1468 1466 1465 1464 1463 1461 1460 1458 1457 1457 1456 1456 1456 1456 1457 1457 1458 1459 1459 1460 1460 1461 1461 1462 1463 1464 1464 1465 1465 1466 1466 1467 1468 1469
1475 1473 1472 1471 1470 1469 1468 1467 1465 1464 1462 1461 1460 1459 1457 1456 1455 1453 1453 1452 1452 1452 1452 1453 1454 1454 1455 1455 1456 1456 1457 1457 1458 1458 1459 1459 1460 1461 1461 1462 1463 1463 1464
1472 1470 1469 1468 1467 1466 1465 1464 1462 1461 1459 1457 1456 1455 1454 1452 1451 1450 1449 1448 1448 1448 1448 1449 1450 1450 1451 1451 1451 1452 1452 1453 1453 1454 1454 1455 1455 1456 1457 1457 1458 1459 1460
1468 1467 1466 1465 1464 1463 1461 1460 1459 1458 1456 1454 1453 1452 1450 1449 1447 1446 1445 1445 1444 1444 1445 1445 1446 1446 1446 1447 1447 1448 1448 1448 1449 1449 1450 1450 1451 1452 1452 1453 1454 1455 1456
1465 1464 1463 1462 1460 1459 1458 1456 1455 1454 1453 1452 1450 1449 1447 1445 1444 1442 1441 1441 1441 1441 1441 1442 1442 1442 1442 1442 1443 1443 1443 1444 1444 1445 1445 1446 1447 1448 1448 1449 1450 1451 1452
1462 1461 1460 1459 1457 1456 1455 1453 1452 1451 1449 1448 1447 1445 1444 1442 1441 1439 1438 1438 1437 1437 1437 1438 1437 1437 1438 1438 1438 1438 1439 1439 1440 1441 1441 1442 1443 1444 1444 1445 1446 1447 1448
1459 1458 1457 1456 1454 1453 1451 1450 1448 1447 1446 1445 1443 1442 1440 1439 1437 1436 1435 1434 1434 1434 1433 1433 1433 1433 1434 1434 1434 1434 1435 1435 1436 1437 1438 1438 1439 1440 1441 1442 1443 1444 1445
1456 1455 1454 1452 1451 1449 1448 1446 1445 1444 1442 1441 1439 1438 1436 1435 1434 1432 1431 1431 1430 1430 1429 1429 1429 1429 1430 1430 1430 1430 1431 1431 1432 1433 1434 1435 1436 1437 1438 1439 1439 1441 1442
1453 1452 1450 1449 1448 1446 1445 1443 1442 1441 1439 1438 1436 1434 1433 1432 1430 1429 1428 1427 1426 1426 1426 1425 1425 1425 1426 1426 1426 1426 1427 1428 1429 1429 1430 1431 1432 1433 1434 1435 1436 1437 1439
1449 1448 1447 1446 1445 1443 1442 1441 1439 1438 1436 1435 1433 1431 1430 1429 1427 1426 1425 1424 1423 1422 1422 1422 1421 1421 1421 1422 1422 1422 1423 1424 1424 1425 1426 1427 1428 1429 1430 1432 1433 1434 1435
1446 1445 1444 1443 1441 1440 1439 1437 1436 1434 1433 1432 1430 1428 1427 1425 1424 1423 1421 1420 1419 1419 1418 1418 1418 1418 1418 1418 1418 1419 1419 1420 1421 1422 1423 1424 1425 1426 1427 1428 1429 1431 1432